STARLINK-35491, 66113

Orbit data source: Space-Track

STARLINK-35491, 66113 is a payload satellite owned by SpaceX/Seattle (US) in LEO that was launched on Sun, 19 Oct 2025 UTC via an FALCON 9 launch vehicle from the Air Force Western Test Range (AFWTR). Payload-class satellites include a variety of spacecraft equipped with specific instruments for various scientific and technological missions. These include communications satellites like Starlink; space stations such as the ISS; scientific satellites like the Hubble; Earth observation satellites from companies like Planet Labs, Umbra, and HawkEye 360; GPS; miniature CubeSats for education and research; and military/defense satellites.

Loading next visibility...
Identifier
66113, 2025-236AD
Orbit
LEO
Country
Flag of USUS
Related business
Manufacturer
SpaceX/Seattle
Mission
Operational Commercial Communications
Bus & Motor
STARLINK V2MO, Unknown motor
Mass
575 kg wet, ~530 kg dry
Launch date (UTC)
2025-10-19 (8 months ago)
Launch vehicle
FALCON 9
Launch site
Air Force Western Test Range (AFWTR)
Object type
Payload
Rocket body
Debris
Shape & HBR
Box + 2 Pan, 17.7 m
Radar Cross Section
36.964 m², Large (>1 m²)

Expand to show TLE details & history
Last TLE update: 11 hours ago

TLE from 11 hours ago
0 STARLINK-35491
1 66113U 25236AD  26171.45158661  .00011990  00000-0  41608-3 0  9990
2 66113  53.1592 346.8552 0001456 104.9962 255.1199 15.30215284 38671
Epoch: 2026-06-20T10:50Z
TLE epoch observation values (Epoch: 2026-06-20T10:50:17.083Z)
Latitude
-0.00008°
Longitude
-84.38206°
Altitude
476.325 km
Speed
7.629 km/s
True Right ascension
23h 07m 25s
True Declination
0° 00' 00"
Sunlit
Object was in daylight at epoch
Visualization orbit readout
Latitude
Unknown
Longitude
Unknown
Altitude
Unknown
Speed
Unknown
Apparent Right ascension
Unknown
Apparent Declination
Unknown
Sunlit
N/A
Visualization observer readout
Local Sidereal Time
08:42:58
Azimuth
Unknown
Elevation
Unknown
Doppler factor
Unknown
Orbital elements
Apogee altitude
476.424 km
Perigee altitude
474.428 km
Semi-major axis
6,853.563 km
Eccentricity
0.00015
Inclination
53.1592°
RAAN
346.8552°
Arg. of periapsis
104.9962°
True anomaly
255.10378°
Mean anomaly
255.1199°
Eccentric anomaly
255.11184°
Mean motion
3.82533 °/min
Orbital period
94.11 mins
BSTAR
0.00041608
Loading maneuver chart data...
Computing Atmospheric mass density...
Loading historical data...
Loading historical data...
Loading historical data...
Loading historical data...
Loading historical data...
Loading historical data...
Loading historical data...

Documentation

Showing up to 5 results
|